Regional Weather Roundup
Issued by NWS Newport/Morehead, NC

Current Version | Previous Version | Text Only | Print | Product List | Glossary On
Versions: 1 2 3 4 5 6 7 8 9 10 11 12 13 14 15 16 17 18 19 20 21 22 23 24 25 26 27 28 29 30 31 32 33 34 35 36 37 38 39 40 41 42 43 44 45 46 47 48 49 50
637 ASUS42 KMHX 201013 RWRMHX WEATHER ROUNDUP FOR EASTERN NORTH CAROLINA NATIONAL WEATHER SERVICE NEWPORT/MOREHEAD CITY NC 500 AM EST MON FEB 20 2017 NOTE: "FAIR" INDICATES FEW OR NO CLOUDS BELOW 12,000 FEET WITH NO SIGNIFICANT WEATHER AND/OR OBSTRUCTIONS TO VISIBILITY NCZ015>017-031-032-045>047-102-103-201100- NORTH COAST CITY SKY/WX TMP DP RH WIND PRES REMARKS EDENTON PTCLDY 48 43 83 N3 30.13R ELIZABETH CITY CLEAR 42 39 89 NW5 30.12R KITTY HAWK NOT AVBL MANTEO CLEAR 51 47 86 N7 30.10R $$ NCZ045>047-081-094-103-104-201100- CENTRAL COAST CITY SKY/WX TMP DP RH WIND PRES REMARKS FRISCO CLEAR 52 48 86 N6 30.09R $$ NCZ095-097-098-100-101-201100- SOUTHERN COAST CITY SKY/WX TMP DP RH WIND PRES REMARKS BEAUFORT CLEAR 53 47 79 NW9 30.10R CEDAR ISLAND NOT AVBL JACKSONVILLE CLEAR 50 44 80 W3 30.12R PINEY ISLAND SUNNY N/A N/A N/A NW8 30.09R WILMINGTON CLEAR 49 45 86 NW3 30.13R $$ NCZ011>013-027>030-043-044-078>080-089-090>093-098-201100- COASTAL PLAIN CITY SKY/WX TMP DP RH WIND PRES REMARKS AHOSKIE N/A 39 37 93 CALM 30.14R CLINTON CLEAR 45 45 100 CALM 30.15R ELIZABETHTOWN CLEAR 52 44 74 NW5 30.14R GOLDSBORO CLEAR 48 45 88 CALM 30.13R GREENVILLE CLEAR 43 36 75 CALM 30.15R HAVELOCK CLEAR 51 44 77 NW5 30.11R KENANSVILLE NOT AVBL KINSTON CLEAR 49 43 78 NW5 30.14R NEW BERN CLEAR 47 43 86 CALM 30.13R RICHLANDS CLEAR 42 40 92 CALM 30.13R ROCKY MOUNT CLEAR 47 42 83 N3 30.14R WASHINGTON CLEAR 47 42 83 N3 30.13R WHITEVILLE CLEAR 47 44 90 CALM 30.13R $$ AMZ130-135-150-152-154-156-158-170-250-252-270-ANZ085-086-088-633-658-670-201100- MARINE OBSERVATIONS STATION/POSITION TIME TEMP WIND PRES WAVE SWELL AIR SEA DIR/SP/G HT/PER HT/PER (UTC) (F) (DEG/KT/KT) (MB) (FT/S) (FT/S) CHESAPEAKE LIGHT NOT AVBL 64 E VA BEACH 0950 52 51 320/ 10/ 10 1017.8 1/ 8 2/ 8 DUCK 0942 56 47 340/ 12/ 13 1018.5 2 E DUCK 1000 49 N/A 1/ 6 OREGON INLET 0948 320/ 5/ 6 N/A 13E OREGON INLT NOT AVBL HATTERAS CG 0942 54 56 300/ 5/ 5 1018.2 DIAMOND BUOY 0950 63 65 340/ 8/ 8 1018.4 1/ 6 2/ 6 CAPE LOOKOUT 1000 55 330/ 8/ 9 1018.6 BEAUFORT LAB 0942 54 53 340/ 5/ 6 1017.9 30 SE NEW RVR IN 0908 61 360/ 12/ 16 1018.3 30 SE NEW RVR IN 0943 63 N/A 2/ 6 27 SE WRIGHTSVLE 0908 58 61 350/ 10/ 12 1018.0 5 SE WRIGHTSVLE 0908 57 56 330/ 10/ 14 1018.9 225 S CAPE HAT 0950 71 72 10/ 19/ 23 1015.9 6/ 7 2/12 41 SE CHARLESTON 0950 64 69 340/ 10/ 10 1019.2 1/10 $$

USA.gov is the U.S. government's official web portal to all federal, state and local government web resources and services.